EW4921 Weather Reports


Display with metric or nautical units.
time (UTC)temp
F
wind
direction
speed
MPH
gust
MPH
rain 1hr
in
rain 24hr
in
rain mn
in
humidity
%
barometer
mb
20260906220541 68 206 2.0 5.0 0.12 0.39 0.39 93 1015.2
20260906220025 67 72 1.0 3.0 0.11 0.36 0.36 93 1014.7
20260906215538 67 89 1.0 3.0 0.11 0.35 0.35 92 1014.8
20260906215030 67 28 2.0 5.0 0.10 0.34 0.34 92 1014.8
20260906214529 67 59 2.0 5.0 0.09 0.33 0.33 92 1014.8
20260906214021 67 28 1.0 5.0 0.08 0.32 0.32 91 1015.1
20260906213514 67 145 1.0 5.0 0.06 0.30 0.30 91 1015.7
20260906213032 67 187 1.0 3.0 0.05 0.29 0.29 91 1015.9
20260906212533 67 314 1.0 3.0 0.05 0.29 0.29 90 1015.8
20260906212024 67 160 1.0 4.0 0.04 0.28 0.28 90 1015.9
20260906211521 67 162 2.0 3.0 0.04 0.28 0.28 89 1015.5
20260906211040 67 46 1.0 2.0 0.03 0.27 0.27 88 1015.0
20260906210540 67 331 1.0 3.0 0.02 0.26 0.26 88 1015.1
20260906210014 67 240 1.0 4.0 0.01 0.25 0.25 88 1015.4
20260906205554 67 102 2.0 4.0 0.00 0.24 0.24 88 1015.3
20260906205040 68 233 1.0 7.0 0.01 0.24 0.24 89 1015.2
20260906204520 68 250 2.0 4.0 0.01 0.24 0.24 90 1015.0
20260906204020 68 213 1.0 4.0 0.01 0.24 0.24 90 1014.7
20260906203522 67 89 2.0 4.0 0.01 0.24 0.24 91 1014.8
20260906203020 66 238 1.0 3.0 0.01 0.24 0.24 91 1015.1
20260906202521 66 190 0.0 3.0 0.01 0.24 0.24 91 1015.3
20260906202055 65 213 1.0 3.0 0.01 0.24 0.24 91 1015.5
20260906201534 65 135 1.0 2.0 0.02 0.24 0.24 91 1015.2
20260906201024 65 1 0.0 2.0 0.02 0.24 0.24 90 1015.3
20260906200559 65 295 1.0 3.0 0.02 0.24 0.24 90 1015.6
20260906200023 65 240 1.0 4.0 0.02 0.24 0.24 90 1015.8
20260906195524 65 231 2.0 4.0 0.02 0.24 0.24 90 1015.8
20260906195033 65 108 1.0 4.0 0.01 0.23 0.23 90 1015.3
20260906194553 65 213 1.0 4.0 0.02 0.23 0.23 90 1016.0
20260906194024 65 206 1.0 4.0 0.02 0.23 0.23 90 1016.3
20260906193520 65 178 2.0 5.0 0.02 0.23 0.23 90 1016.4
20260906193020 65 178 3.0 5.0 0.02 0.23 0.23 90 1016.5
20260906192517 64 187 1.0 2.0 0.02 0.23 0.23 90 1015.6
20260906192016 64 1 1.0 3.0 0.02 0.23 0.23 89 1015.8
20260906191519 64 173 2.0 3.0 0.01 0.22 0.22 90 1016.3
20260906191029 64 145 2.0 3.0 0.01 0.22 0.22 90 1016.5
20260906190623 64 102 1.0 3.0 0.01 0.22 0.22 90 1016.5
20260906190022 64 314 1.0 3.0 0.01 0.22 0.22 90 1017.0
20260906185514 64 76 1.0 3.0 0.02 0.22 0.22 90 1016.8
20260906185026 63 344 1.0 3.0 0.02 0.22 0.22 90 1016.9
20260906184520 63 35 1.0 3.0 0.02 0.21 0.21 89 1017.0
20260906184019 63 89 1.0 2.0 0.03 0.21 0.21 89 1017.4
20260906183520 63 286 1.0 3.0 0.04 0.21 0.21 89 1017.8
20260906183048 63 152 1.0 5.0 0.06 0.21 0.21 89 1017.7
20260906182531 63 46 2.0 5.0 0.07 0.21 0.21 90 1017.8
20260906182022 63 46 1.0 3.0 0.10 0.21 0.21 90 1017.9
20260906181522 63 253 1.0 3.0 0.11 0.21 0.21 90 1017.6
20260906181030 63 314 1.0 3.0 0.12 0.21 0.21 91 1017.5
20260906180557 64 324 1.0 3.0 0.13 0.21 0.21 91 1017.6
20260906180018 64 142 1.0 3.0 0.14 0.21 0.21 92 1017.5
20260906175521 64 250 0.0 3.0 0.14 0.20 0.20 92 1017.7
20260906175020 64 164 1.0 3.0 0.15 0.20 0.20 92 1017.4
20260906174521 64 178 1.0 3.0 0.15 0.19 0.19 92 1017.3
20260906174033 64 253 2.0 4.0 0.15 0.18 0.18 91 1017.4
20260906173535 64 269 1.0 4.0 0.15 0.17 0.17 91 1017.4
20260906173022 64 269 0.0 2.0 0.14 0.15 0.15 91 1017.4
20260906172514 64 135 1.0 2.0 0.12 0.13 0.13 91 1017.3
20260906172031 64 269 0.0 1.0 0.10 0.11 0.11 91 1017.2
20260906171531 64 46 0.0 2.0 0.09 0.10 0.10 91 1017.2
20260906171022 64 269 0.0 2.0 0.09 0.09 0.09 91 1017.0
20260906170547 64 279 1.0 2.0 0.08 0.08 0.08 91 1017.0
20260906170035 64 269 1.0 2.0 0.07 0.07 0.07 91 1017.2
20260906165534 64 295 1.0 2.0 0.06 0.06 0.06 90 1016.6
20260906165054 63 46 0.0 2.0 0.05 0.05 0.05 89 1016.5
20260906164532 63 331 0.0 2.0 0.04 0.04 0.04 89 1016.3
20260906164022 63 206 0.0 3.0 0.03 0.03 0.03 88 1016.3
20260906163520 63 222 1.0 3.0 0.02 0.02 0.02 88 1016.4
20260906163051 64 314 1.0 3.0 0.01 0.01 0.01 87 1016.4
20260906162534 63 53 1.0 3.0 0.01 0.01 0.01 87 1016.4
20260906162044 63 89 0.0 2.0 0.01 0.01 0.01 86 1016.3
20260906161524 63 269 1.0 2.0 0.00 0.00 0.00 84 1016.5
20260906161051 63 89 0.0 2.0 0.00 0.00 0.00 82 1016.3
20260906160624 63 269 0.0 2.0 0.00 0.00 0.00 82 1016.2
20260906160050 63 314 1.0 3.0 0.00 0.00 0.00 81 1016.0
20260906155531 63 269 2.0 3.0 0.00 0.00 0.00 81 1015.9
20260906155035 63 46 1.0 3.0 0.00 0.00 0.00 81 1015.5
20260906154517 63 269 1.0 3.0 0.00 0.00 0.00 80 1015.3
20260906154013 63 210 1.0 5.0 0.00 0.00 0.00 79 1015.3
20260906153534 63 269 1.0 5.0 0.00 0.00 0.00 79 1015.3
20260906153027 63 178 2.0 5.0 0.00 0.00 0.00 78 1015.4
20260906152530 63 172 2.0 4.0 0.00 0.00 0.00 77 1015.3
20260906152037 63 169 2.0 4.0 0.00 0.00 0.00 77 1015.1
20260906151537 63 164 1.0 3.0 0.00 0.00 0.00 78 1015.0
20260906151028 63 240 1.0 3.0 0.00 0.00 0.00 78 1015.0
20260906150602 63 213 1.0 4.0 0.00 0.00 0.00 78 1015.1
20260906150027 63 250 3.0 4.0 0.00 0.00 0.00 77 1015.0
20260906145545 63 178 1.0 5.0 0.00 0.00 0.00 78 1014.8
20260906145023 63 197 2.0 6.0 0.00 0.00 0.00 77 1014.9
20260906144516 64 122 2.0 5.0 0.00 0.00 0.00 76 1015.0
20260906144034 64 108 2.0 5.0 0.00 0.00 0.00 73 1014.9
20260906143533 65 233 3.0 5.0 0.00 0.00 0.00 71 1014.8
20260906143021 65 197 1.0 5.0 0.00 0.00 0.00 69 1014.6
20260906142522 65 152 2.0 7.0 0.00 0.00 0.00 68 1014.6
20260906142021 65 117 2.0 7.0 0.00 0.00 0.00 65 1014.6
20260906141521 66 131 3.0 9.0 0.00 0.00 0.00 64 1014.6
20260906141019 66 314 2.0 9.0 0.00 0.00 0.00 63 1014.3
20260906140546 67 89 1.0 11.0 0.00 0.00 0.00 61 1014.3
20260906140035 67 272 2.0 11.0 0.00 0.00 0.00 61 1014.2
20260906135517 67 120 3.0 8.0 0.00 0.00 0.00 61 1014.4
20260906135015 67 130 3.0 11.0 0.00 0.00 0.00 60 1014.2
20260906134532 67 89 3.0 11.0 0.00 0.00 0.00 61 1014.2
20260906134043 67 25 2.0 8.0 0.00 0.00 0.00 64 1014.1
20260906133523 68 28 3.0 8.0 0.00 0.00 0.00 64 1014.4
20260906133037 68 53 2.0 11.0 0.00 0.00 0.00 63 1014.5
20260906132518 69 324 4.0 11.0 0.00 0.00 0.00 63 1014.6
20260906132015 68 124 3.0 7.0 0.00 0.00 0.00 56 1014.4
20260906131537 68 110 2.0 8.0 0.00 0.00 0.00 56 1014.2
20260906131028 67 102 3.0 7.0 0.00 0.00 0.00 57 1014.2
20260906130547 66 269 3.0 7.0 0.00 0.00 0.00 58 1013.9
20260906130052 64 160 2.0 6.0 0.00 0.00 0.00 59 1013.9
20260906125554 64 117 1.0 3.0 0.00 0.00 0.00 70 1013.8
20260906125025 63 328 1.0 2.0 0.00 0.00 0.00 70 1013.8
20260906124542 63 1 1.0 2.0 0.00 0.00 0.00 71 1013.9
20260906124037 63 89 0.0 1.0 0.00 0.00 0.00 71 1014.1
20260906123600 63 46 0.0 1.0 0.00 0.00 0.00 71 1014.0
20260906123030 63 178 0.0 1.0 0.00 0.00 0.00 71 1013.7
20260906122553 63 1 0.0 1.0 0.00 0.00 0.00 71 1013.6
20260906122024 63 1 0.0 1.0 0.00 0.00 0.00 71 1013.5
20260906121519 63 135 0.0 1.0 0.00 0.00 0.00 70 1013.5
20260906121031 63 89 0.0 1.0 0.00 0.00 0.00 70 1013.5
20260906120537 63 63 0.0 2.0 0.00 0.00 0.00 70 1013.4
20260906120031 63 1 0.0 2.0 0.00 0.00 0.00 70 1013.3
20260906115533 63 89 0.0 2.0 0.00 0.00 0.00 70 1013.3
20260906115022 63 46 0.0 2.0 0.00 0.00 0.00 69 1013.3
20260906114514 63 46 0.0 1.0 0.00 0.00 0.00 69 1013.4
20260906114025 63 28 0.0 2.0 0.00 0.00 0.00 70 1013.4
20260906113521 63 89 0.0 2.0 0.00 0.00 0.00 70 1013.2
20260906113020 63 1 0.0 1.0 0.00 0.00 0.00 69 1013.3
20260906112524 63 46 0.0 1.0 0.00 0.00 0.00 69 1013.5
20260906112015 63 46 0.0 2.0 0.00 0.00 0.00 69 1013.6
20260906111530 63 46 0.0 3.0 0.00 0.00 0.00 68 1013.6
20260906111023 63 178 1.0 3.0 0.00 0.00 0.00 68 1013.4
20260906110539 63 46 0.0 2.0 0.00 0.00 0.00 69 1013.4
20260906110052 63 331 0.0 2.0 0.00 0.00 0.00 70 1013.2
20260906105531 63 46 0.0 2.0 0.00 0.00 0.00 70 1013.3
20260906105020 64 46 0.0 1.0 0.00 0.00 0.00 70 1013.4
20260906104521 64 331 0.0 2.0 0.00 0.00 0.00 69 1013.5
20260906104019 64 46 0.0 2.0 0.00 0.00 0.00 69 1013.5
20260906103542 64 1 0.0 2.0 0.00 0.00 0.00 68 1013.5
20260906103019 64 89 0.0 2.0 0.00 0.00 0.00 68 1013.5
20260906102521 63 89 1.0 2.0 0.00 0.00 0.00 68 1013.5
20260906102018 63 46 0.0 1.0 0.00 0.00 0.00 69 1013.4
20260906101519 63 1 0.0 2.0 0.00 0.00 0.00 70 1013.5
20260906101019 63 46 1.0 2.0 0.00 0.00 0.00 69 1013.5
20260906100543 63 46 0.0 1.0 0.00 0.00 0.00 70 1013.4
20260906100030 63 46 0.0 1.0 0.00 0.00 0.00 70 1013.5
20260906095532 63 1 0.0 1.0 0.00 0.00 0.00 70 1013.5
20260906095018 63 46 0.0 1.0 0.00 0.00 0.00 70 1013.7
20260906094520 63 1 0.0 1.0 0.00 0.00 0.00 69 1013.5
20260906094040 63 314 0.0 1.0 0.00 0.00 0.00 70 1013.5
20260906093542 62 89 0.0 1.0 0.00 0.00 0.00 70 1013.5
20260906093020 62 135 0.0 1.0 0.00 0.00 0.00 69 1013.5
20260906092517 62 63 1.0 1.0 0.00 0.00 0.00 69 1013.4
20260906092030 62 314 0.0 1.0 0.00 0.00 0.00 70 1013.5
20260906091533 62 46 1.0 2.0 0.00 0.00 0.00 70 1013.5
20260906091024 62 1 0.0 1.0 0.00 0.00 0.00 71 1013.5
20260906090600 62 46 0.0 2.0 0.00 0.00 0.00 71 1013.6
20260906090042 62 1 0.0 1.0 0.00 0.00 0.00 70 1013.8
20260906085524 62 89 0.0 1.0 0.00 0.00 0.00 70 1013.8
20260906085042 61 89 0.0 1.0 0.00 0.00 0.00 70 1013.8
20260906084536 61 1 0.0 1.0 0.00 0.00 0.00 70 1013.8
20260906084048 61 46 0.0 2.0 0.00 0.00 0.00 70 1013.7
20260906083523 61 178 0.0 3.0 0.00 0.00 0.00 71 1013.7
20260906083020 61 20 1.0 3.0 0.00 0.00 0.00 71 1013.7
20260906082521 61 331 1.0 2.0 0.00 0.00 0.00 70 1013.7
20260906082032 60 46 0.0 2.0 0.00 0.00 0.00 71 1013.8
20260906081532 60 1 0.0 2.0 0.00 0.00 0.00 71 1013.9
20260906081022 60 15 0.0 2.0 0.00 0.00 0.00 72 1014.0
20260906080544 61 1 0.0 2.0 0.00 0.00 0.00 72 1014.0
20260906080019 61 1 1.0 2.0 0.00 0.00 0.00 72 1014.0
20260906075540 61 46 1.0 2.0 0.00 0.00 0.00 72 1014.0
20260906075019 61 1 0.0 2.0 0.00 0.00 0.00 71 1013.9
20260906074537 61 1 1.0 2.0 0.00 0.00 0.00 72 1014.0
20260906074031 61 1 0.0 2.0 0.00 0.00 0.00 71 1014.0
20260906073527 61 1 0.0 1.0 0.00 0.00 0.00 71 1014.0
20260906073024 61 28 0.0 2.0 0.00 0.00 0.00 72 1013.9
20260906072544 61 1 0.0 2.0 0.00 0.00 0.00 72 1013.8
20260906072036 61 89 0.0 2.0 0.00 0.00 0.00 72 1013.8
20260906071534 61 1 1.0 2.0 0.00 0.00 0.00 72 1014.0
20260906071022 61 89 0.0 2.0 0.00 0.00 0.00 72 1013.9
20260906070546 62 28 1.0 2.0 0.00 0.00 0.00 71 1013.9
20260906070030 62 63 0.0 2.0 0.00 0.00 0.00 71 1013.8
20260906065525 62 1 1.0 2.0 0.00 0.00 0.00 71 1014.0
20260906065024 62 1 1.0 3.0 0.00 0.00 0.00 70 1013.9
20260906064526 62 1 2.0 3.0 0.00 0.00 0.00 69 1013.9
20260906064035 62 347 2.0 3.0 0.00 0.00 0.00 69 1013.8
20260906063534 62 1 1.0 2.0 0.00 0.00 0.00 68 1013.9
20260906063045 62 15 1.0 2.0 0.00 0.00 0.00 68 1014.0
20260906062540 62 28 1.0 2.0 0.00 0.00 0.00 69 1014.0
20260906062028 62 28 1.0 2.0 0.00 0.00 0.00 68 1014.2
20260906061519 62 46 1.0 2.0 0.00 0.00 0.00 67 1014.2
20260906061021 62 20 1.0 2.0 0.00 0.00 0.00 67 1014.1
20260906060542 62 20 1.0 2.0 0.00 0.00 0.00 67 1014.1
20260906060056 63 1 1.0 2.0 0.00 0.00 0.00 67 1014.1
20260906055536 63 1 0.0 2.0 0.00 0.00 0.00 68 1014.2
20260906055028 63 28 0.0 1.0 0.00 0.00 0.00 68 1014.2
20260906054545 63 46 0.0 1.0 0.00 0.00 0.00 68 1014.2
20260906054055 63 89 0.0 1.0 0.00 0.00 0.00 68 1014.2
20260906053537 63 28 1.0 1.0 0.00 0.00 0.00 68 1014.3
20260906053048 63 56 0.0 1.0 0.00 0.00 0.00 68 1014.3
20260906052542 64 46 1.0 1.0 0.00 0.00 0.00 68 1014.3
20260906052034 64 20 1.0 1.0 0.00 0.00 0.00 67 1014.3
20260906051535 64 20 1.0 1.0 0.00 0.00 0.00 67 1014.4
20260906051046 64 72 0.0 2.0 0.00 0.00 0.00 68 1014.4
20260906050550 64 46 0.0 2.0 0.00 0.00 0.00 67 1014.5
20260906050059 65 1 0.0 1.0 0.00 0.00 0.00 68 1014.5
20260906045603 65 1 0.0 1.0 0.00 0.00 0.00 67 1014.6
20260906045034 65 1 0.0 2.0 0.00 0.00 0.00 68 1014.6
20260906044555 65 89 0.0 2.0 0.00 0.00 0.00 68 1014.6
20260906044026 66 46 0.0 1.0 0.00 0.00 0.00 68 1014.6
20260906043543 66 89 0.0 1.0 0.00 0.00 0.00 68 1014.7
20260906043054 66 1 1.0 1.0 0.00 0.00 0.00 69 1014.5
20260906042536 66 178 0.0 1.0 0.00 0.00 0.00 68 1014.5
20260906042029 67 1 0.0 1.0 0.00 0.00 0.00 68 1014.5
20260906041523 67 89 0.0 1.0 0.00 0.00 0.00 67 1014.7
20260906041018 67 178 0.0 1.0 0.00 0.00 0.00 68 1014.5
20260906040543 67 56 0.0 1.0 0.00 0.00 0.00 67 1014.5
20260906040033 68 89 0.0 1.0 0.00 0.00 0.00 68 1014.4
20260906035536 68 28 0.0 1.0 0.00 0.00 0.00 67 1014.4
20260906035048 68 331 0.0 1.0 0.00 0.00 0.00 67 1014.4
20260906034527 69 331 0.0 1.0 0.00 0.00 0.00 67 1014.4
20260906034021 69 314 0.0 1.0 0.00 0.00 0.00 67 1014.2
20260906033522 69 314 0.0 1.0 0.00 0.00 0.00 66 1014.1
20260906033020 70 46 0.0 1.0 0.00 0.00 0.00 66 1014.1
20260906032523 70 46 0.0 1.0 0.00 0.00 0.00 65 1014.1
20260906032016 70 240 0.0 2.0 0.00 0.00 0.00 64 1014.0
20260906031538 70 269 0.0 2.0 0.00 0.00 0.00 64 1013.9
20260906031027 71 314 1.0 3.0 0.00 0.00 0.00 64 1013.8
20260906030551 71 222 1.0 3.0 0.00 0.00 0.00 63 1013.8
20260906030024 71 1 1.0 3.0 0.00 0.00 0.00 62 1013.8
20260906025527 72 331 0.0 3.0 0.00 0.00 0.00 61 1013.8
20260906025024 72 286 1.0 5.0 0.00 0.00 0.00 60 1013.8
20260906024525 73 324 1.0 5.0 0.00 0.00 0.00 59 1013.8
20260906024020 73 314 0.0 2.0 0.00 0.00 0.00 58 1013.8
20260906023521 74 295 0.0 2.0 0.00 0.00 0.00 57 1013.8
20260906023033 74 314 0.0 2.0 0.00 0.00 0.00 56 1013.8
20260906022535 74 269 1.0 2.0 0.00 0.00 0.00 55 1013.8
20260906022027 75 218 1.0 2.0 0.00 0.00 0.00 54 1013.7
20260906021549 75 324 1.0 5.0 0.00 0.00 0.00 53 1013.7
20260906021016 75 178 1.0 5.0 0.00 0.00 0.00 52 1013.7
20260906020541 76 1 1.0 2.0 0.00 0.00 0.00 51 1013.7
20260906020054 76 53 2.0 3.0 0.00 0.00 0.00 50 1013.6
20260906015536 77 89 0.0 6.0 0.00 0.00 0.00 50 1013.7
20260906015028 77 314 2.0 6.0 0.00 0.00 0.00 48 1013.7
20260906014543 78 222 1.0 3.0 0.00 0.00 0.00 48 1013.7
20260906014019 78 314 1.0 3.0 0.00 0.00 0.00 47 1013.5
20260906013541 78 167 2.0 3.0 0.00 0.00 0.00 46 1013.5
20260906013034 79 32 1.0 5.0 0.00 0.00 0.00 45 1013.5
20260906012533 79 72 1.0 5.0 0.00 0.00 0.00 44 1013.6
20260906012025 80 56 3.0 8.0 0.00 0.00 0.00 43 1013.7
20260906011521 80 1 3.0 8.0 0.00 0.00 0.00 43 1013.5
20260906011032 80 197 2.0 7.0 0.00 0.00 0.00 42 1013.6
20260906010605 81 279 2.0 7.0 0.00 0.00 0.00 42 1013.6
20260906010053 81 178 3.0 7.0 0.00 0.00 0.00 41 1013.6
20260906005535 81 250 2.0 8.0 0.00 0.00 0.00 40 1013.5
20260906005023 82 178 2.0 8.0 0.00 0.00 0.00 41 1013.5
20260906004524 82 257 3.0 7.0 0.00 0.00 0.00 39 1013.5
20260906004022 82 302 2.0 8.0 0.00 0.00 0.00 39 1013.4
20260906003524 83 15 2.0 10.0 0.00 0.00 0.00 39 1013.3
20260906003016 83 46 2.0 10.0 0.00 0.00 0.00 40 1013.4
20260906002538 83 238 3.0 8.0 0.00 0.00 0.00 38 1013.4
20260906002025 84 335 2.0 6.0 0.00 0.00 0.00 37 1013.4
20260906001527 84 209 2.0 6.0 0.00 0.00 0.00 37 1013.3
20260906001025 85 331 2.0 5.0 0.00 0.00 0.00 36 1013.3
20260906000549 85 259 1.0 9.0 0.00 0.00 0.00 37 1013.5
20260906000023 85 238 3.0 9.0 0.00 0.00 0.00 37 1013.3
20260905235545 85 178 2.0 7.0 0.00 0.00 0.00 38 1013.3
20260905235033 85 145 2.0 7.0 0.00 0.00 0.00 38 1013.3
20260905234534 85 286 3.0 7.0 0.00 0.00 0.00 38 1013.3
20260905234024 85 46 2.0 10.0 0.00 0.00 0.00 39 1013.2
20260905233519 86 222 4.0 10.0 0.00 0.00 0.00 39 1013.3
20260905233032 86 354 3.0 9.0 0.00 0.00 0.00 38 1013.3
20260905232533 86 219 4.0 9.0 0.00 0.00 0.00 39 1013.3
20260905232020 87 281 3.0 8.0 0.00 0.00 0.00 38 1013.3
20260905231521 87 222 3.0 7.0 0.00 0.00 0.00 37 1013.2
20260905231031 86 269 3.0 7.0 0.00 0.00 0.00 38 1013.3
20260905230606 86 117 2.0 6.0 0.00 0.00 0.00 37 1013.3
20260905230030 86 303 2.0 9.0 0.00 0.00 0.00 37 1013.3
20260905225524 86 28 3.0 9.0 0.00 0.00 0.00 37 1013.3
20260905225019 86 331 3.0 9.0 0.00 0.00 0.00 39 1013.3
20260905224541 86 355 3.0 10.0 0.00 0.00 0.00 39 1013.4
20260905224031 86 322 4.0 9.0 0.00 0.00 0.00 39 1013.3
20260905223534 87 219 4.0 9.0 0.00 0.00 0.00 39 1013.4
20260905223026 87 46 4.0 9.0 0.00 0.00 0.00 40 1013.3
20260905222527 87 222 2.0 9.0 0.00 0.00 0.00 42 1013.3
20260905222035 87 112 2.0 8.0 0.00 0.00 0.00 41 1013.4
20260905221537 87 53 3.0 11.0 0.00 0.00 0.00 41 1013.4
20260905221027 87 340 4.0 11.0 0.00 0.00 0.00 39 1013.5